Regional Weather Roundup
Issued by NWS Pendleton, OR

Home | Current Version | Previous Version | Text Only | Print | Product List | Glossary On
Versions: 1 2 3 4 5 6 7 8 9 10 11 12 13 14 15 16 17 18 19 20 21 22 23 24 25 26 27 28 29 30 31 32 33 34 35 36 37 38 39 40 41 42 43 44 45 46 47 48 49 50
000
ASUS46 KPDT 302004
RWRPDT
PENDLETON REGIONAL WEATHER ROUNDUP
NATIONAL WEATHER SERVICE PENDLETON OREGON
1200 PM PST FRI JAN 30 2015

NOTE: FAIR INDICATES FEW OR NO CLOUDS BELOW 12,000 FEET WITH NO
SIGNIFICANT WEATHER AND/OR OBSTRUCTIONS TO VISIBILITY.

# INDICATES UNOFFICIAL STATION AND DATA

WAZ520-302110-
EAST SLOPES OF WASHINGTON CASCADES

CITY            SKY/WX      TMP DP  RH  WIND    PRES   REMARKS
#BULLFROG       N/A         31  28  88  CALM    N/A
#BUMPING DAM    N/A         31  N/A N/A CALM    N/A
#CLE ELUM HS    N/A         33  28  82  CALM    30.30F
#CLE ELUM LAKE  N/A         28  27  96  CALM    30.43F
#CLIFFDEL 2NW   N/A         30  29  96  CALM    N/A
#EASTON DOT     N/A         28  28  100 N5      N/A
#ELK HTS DOT    N/A         31  31  100 E2      N/A
#GLENWOOD       N/A         35  32  89  CALM    30.43F
#MANASTASH CYN  N/A         31  27  85  N1      30.27F
#NELSON         N/A         31  29  92  CALM    30.46F
#NELSON 3SW     N/A         27  26  96  CALM    30.66F
#NILE           N/A         32  30  92  E1      29.67F
#PEOH POINT     N/A         33  28  82  CALM    N/A
#RONALD 2NW     N/A         31  23  72  CALM    30.17F
#SNOWDEN        N/A         31  29  92  CALM    N/A
#SOUTH BLEWITT  N/A         32  29  89  CALM    N/A
#TEANAWAY 4NE   N/A         33  32  96  CALM    N/A
#TROUT LAKE 1NE N/A         34  32  92  CALM    30.44F
$$

WAZ521-302110-
SIMCOE HIGHLANDS

CITY            SKY/WX      TMP DP  RH  WIND    PRES   REMARKS
#BICKLETON HS   N/A         29  29  100 CALM    N/A
#SATUS PASS DOT N/A         29  28  96  CALM    N/A
#CENTERVILLE 4W N/A         35  34  96  E3      30.10F
#CENTERVILLE 1SWN/A         32  29  89  CALM    30.42F
#GOLDENDALE     N/A         34  32  92  CALM    N/A
#GOLDENDALE 1NE N/A         34  28  78  E2      N/A
#GOLDENDALE 1S  N/A         31  30  96  CALM    30.34F
#GOLDENDALE 5WNWN/A         34  31  89  CALM    30.43F
#GOODNOE HILLS  N/A         36  30  79  SE3     N/A
#LYLE 6NE       N/A         34  32  92  E5      30.42F
$$

WAZ026-302110-
KITTITAS VALLEY

CITY            SKY/WX      TMP DP  RH  WIND    PRES   REMARKS
ELLENSBURG AP   CLOUDY      37  31  79  S5      30.36F
#ELLENSBURG CWU N/A         35  32  89  CALM    30.39F
#ELLENSBURG 3NE N/A         33  32  96  CALM    30.35F
#ELLENSBURG 1E  N/A         35  32  89  CALM    N/A
#KITTITAS 4N    N/A         36  33  89  CALM    28.65F
#KITTITAS 3S    N/A         35  34  96  CALM    30.42F
#MANASTASH RDG  N/A         31  31  100 CALM    N/A
#ROCKY CYN DOT  N/A         33  33  100 E2      N/A
#RYEGRASS DOT   N/A         31  31  100 CALM    N/A
#THORP 6N       N/A         30  29  96  E3      30.46F
$$

WAZ027-302110-
YAKIMA VALLEY

CITY            SKY/WX      TMP DP  RH  WIND    PRES   REMARKS
SUNNYSIDE AP    CLOUDY      36  32  85  S6      30.43F
YAKIMA AIRPORT  CLOUDY      39  31  73  CALM    30.41F
YAKIMA-VAGABOND CLOUDY      35  33  92  SW2     30.39F
#DONALD 2NE     N/A         37  33  85  N1      29.24F
#MABTON         N/A         38  35  89  S2      30.44F
#MOXEE 2E       N/A         37  30  75  CALM    30.34F
#NACHES 2SW     N/A         34  33  96  CALM    30.37F
#PARKER DOT     N/A         37  35  92  N2      N/A
#SELAH 8E       N/A         33  33  100 CALM    N/A
#TERRACE HTS    N/A         36  34  92  CALM    30.43F
#TOPPENISH      N/A         37  33  85  CALM    30.37F
#I82 S UMTANUM RN/A         33  31  92  CALM    N/A
#UNION GAP DOT  N/A         38  34  85  N2      N/A
#WAPATO 4NE     N/A         37  33  85  N1      29.24F
#WEST VALLEY    N/A         36  32  85  CALM    30.44F
#W YAKIMA       N/A         36  32  85  S1      30.45F
#WHITE SWAN 5E  N/A         37  33  85  SW3     30.46F
#ZILLAH DOT     N/A         37  36  96  SW2     N/A
$$

WAZ028-302110-
LOWER COLUMBIA BASIN...WASHINGTON

CITY            SKY/WX      TMP DP  RH  WIND    PRES   REMARKS
PASCO           CLOUDY      40  36  85  W5      30.45F
PROSSER AWOS    N/A         39  36  89  SW6     30.46F
RICHLAND AWOS   CLOUDY      39  36  89  W5      30.46F
#BASIN CITY 5SW N/A         39  38  96  S1      30.44F
#BENTON CITY    N/A         37  35  92  W8      30.38F
#CONNELL 5N     N/A         35  34  96  SE1     30.46F
#CONNELL 5NW    N/A         36  35  96  E1      30.42F
#ELTOPIA 6NW    N/A         37  36  96  CALM    29.38F
#KAHLOTUS       N/A         35  33  92  S2      30.45F
#KENNEWICK 3S   N/A         37  36  96  CALM    30.48F
#PATERSON       N/A         38  36  92  CALM    30.45F
#PROSSER DOT    N/A         38  35  89  SW6     N/A
#PROSSER        N/A         37  33  85  W3      30.47F
#SAGEMOOR 2W    N/A         38  35  89  CALM    30.31F
#TOUCHET 2S     N/A         37  36  96  CALM    30.45F
#WEST PASCO     N/A         41  38  89  W1      30.45S
$$

WAZ029-302110-
FOOTHILLS OF THE BLUES...WASHINGTON

CITY            SKY/WX      TMP DP  RH  WIND    PRES   REMARKS
WALLA WALLA AP  CLOUDY      37  33  85  S7      30.41F FOG
#DAYTON SCHOOL  N/A         34  28  78  CALM    30.39F
#LOWDEN 2SE     N/A         38  36  92  CALM    30.41F
#PLEASANT VIEW 1N/A         32  32  100 CALM    30.50F
#PRESCOTT       N/A         37  35  92  CALM    30.46F
#SUDBURY        N/A         42  N/A N/A CALM    N/A
#WHITMAN COLLEGEN/A         36  34  92  CALM    30.51F
#WAITSBURG 5S   N/A         33  33  100 SW3     30.57F
#WAITSBURG 8N   N/A         33  21  61  S3      30.24F
#WALLA WALLA 5E N/A         36  34  92  S5      N/A
#WALLA WALLA U  N/A         38  36  92  CALM    30.46F
#WHITMAN MISSIONN/A         38  36  92  CALM    30.47F
$$

WAZ030-302110-
BLUE MOUNTAINS...WASHINGTON

CITY            SKY/WX      TMP DP  RH  WIND    PRES   REMARKS
#DIXIE 5SE      N/A         28  27  96  CALM    30.26F
#SKI BLUEWOOD   N/A         40  30  67  CALM    30.23F
$$

ORZ009-041-WAZ024-302110-
COLUMBIA RIVER GORGE

CITY            SKY/WX      TMP DP  RH  WIND    PRES   REMARKS
HOOD RIVER AP   CLOUDY      39  34  82  NE5     30.43F
THE DALLES AP   CLOUDY      41  34  76  E6      30.44F
#ARLINGTON AIRPON/A         37  34  89  CALM    30.02S
#ARLINGTON HS   N/A         39  36  89  CALM    30.39F
#CELILO DOT     N/A         41  33  73  CALM    N/A
#LYLE           N/A         41  36  82  SE8     30.46F
#MARYHILL       N/A         38  35  89  CALM    N/A
#MOSIER 1S      N/A         38  32  79  CALM    30.44F
#MURDOCK        N/A         42  37  82  E3      30.47F
#RUFUS DOT      N/A         N/A N/A N/A CALM    N/A

$$

ORZ510-302110-
NORTH CENTRAL OREGON

CITY            SKY/WX      TMP DP  RH  WIND    PRES   REMARKS
#CHENOWITH 1W   N/A         33  33  100 SE8     N/A
#COW CYN RST AREN/A         32  32  100 S1      N/A
#DUFUR 9E       N/A         30  30  100 E3      30.51F
#GRASS VALLEY 1SN/A         32  31  96  CALM    30.47F
#KENT DOT       N/A         32  29  89  CALM    N/A
#MAUPIN SCHOOL  N/A         39  33  79  CALM    30.41F
#MORO SCHOOL    N/A         33  33  100 CALM    30.38F
#SHANIKO 5WSW   N/A         31  28  88  SW5     N/A
#SHANIKO 4NW    N/A         31  31  100 W1      30.31S
#TYGH VALLEY 2NEN/A         39  33  79  CALM    30.44F
#WAPANITIA AIRPON/A         35  32  89  CALM    30.46F
#WASCO DOT      N/A         36  31  82  E1      N/A
#WASCO 5NE      N/A         34  33  96  CALM    30.46F
$$

ORZ511-302110-
CENTRAL OREGON

CITY            SKY/WX      TMP DP  RH  WIND    PRES   REMARKS
BEND AIRPORT    CLOUDY      32  32  100 CALM    30.34F FOG
MADRAS AIRPORT  N/A         36  34  92  SW3     30.37F
PRINEVILLE AP   CLOUDY      34  34  100 CALM    30.33F
REDMOND AIRPORT CLOUDY      34  32  92  CALM    30.33F
#BEND 1SW       N/A         33  32  96  NE1     N/A
#BEND-AWBREY    N/A         34  34  100 N1      30.40F
#BEND-KIM LN    N/A         34  33  96  CALM    30.29F
#CROOKED RVR RANN/A         36  34  92  NE1     30.41F
#CULVER         N/A         35  33  92  CALM    30.31F
#LAKE BILLY CHINN/A         36  27  69  CALM    30.40F
#POWELL BUTTE 3EN/A         34  33  96  W2      N/A
#POWELL BUTTE   N/A         36  33  89  CALM    29.92F
#PRINEVILLE 3N  N/A         36  34  92  SW2     30.35F
#WARM SPRINGS   N/A         40  35  82  CALM    30.35F

$$


ORZ509-302110-
EAST SLOPES OF OREGON CASCADES

CITY            SKY/WX      TMP DP  RH  WIND    PRES   REMARKS
#BLUE BOX PASS  N/A         37  -13 11  S2      N/A
#CAMP SHERMAN   N/A         38  33  82  CALM    30.42F
#LA PINE DOT    N/A         33  32  96  CALM    N/A
#LA PINE 4NW    N/A         32  29  89  CALM    30.41S
#LAVA BUTTE DOT N/A         32  31  96  CALM    N/A
#MT BACHELOR-MIDN/A         35  -1  21  E15     N/A    WCI 25
#SISTERS AIRPOR N/A         34  34  100 CALM    30.17S
#SISTERS ODOT   N/A         34  N/A N/A CALM    N/A
#SISTERS 3N     N/A         35  31  85  CALM    30.31F
#SUNRIVER       N/A         34  33  96  E1      30.27S
#TUMALO 3W      N/A         32  31  96  E1      30.30F
#WANOGA BUTTE D N/A         43   6  21  NE7     N/A

$$

ORZ044-302110-
LOWER COLUMBIA BASIN...OREGON

CITY            SKY/WX      TMP DP  RH  WIND    PRES   REMARKS
HERMISTON       CLOUDY      38  35  89  NW3     30.44F
#BOARDMAN SCHOOLN/A         40  35  82  CALM    30.46F
#BOARDMAN 8SW   N/A         38  36  92  N1      30.46F
#ECHO 8SW       N/A         38  38  100 CALM    30.41F
#IONE SCHOOL    N/A         37  25  61  CALM    30.40F
#IRRIGON 4NW    N/A         39  39  100 S1      N/A
#UMATILLA SCHOOLN/A         37  37  100 W2      30.47F
#UMATILLA       N/A         40  36  85  SW2     30.42F
$$

ORZ507-302110-
NORTHERN FOOTHILLS OF THE BLUES

CITY            SKY/WX      TMP DP  RH  WIND    PRES   REMARKS
PENDLETON AIRPT CLOUDY      34  30  85  S3      30.39F
#ADAMS 3WNW     N/A         34  32  92  SW2     30.46F
#ATHENA         N/A         33  32  96  CALM    30.49F
#CAYUSE         N/A         35  31  85  S1      30.46F
#HELIX SCHOOL   N/A         34  32  92  SW3     30.45F
#HELIX 3N       N/A         33  32  96  CALM    30.33F
#HELIX 6SW      N/A         34  32  92  S3      30.37F
#HOLDMAN 5SE    N/A         35  33  92  CALM    30.39F
#HOLDMAN 6E     N/A         33  33  100 CALM    30.27F
#M-F FERNDALE   N/A         38  34  85  CALM    30.41F
#M-F GROVE ELEM N/A         37  31  79  CALM    30.39F
#M-FREEWATER 5SEN/A         36  32  85  CALM    30.39F
#PENDLETON DNTN N/A         38  33  82  CALM    29.20F
#PDT AQUATIC CTRN/A         38  35  89  CALM    30.40S
#PENDLETON 5NE  N/A         35  33  92  CALM    30.36F
#PDT SUNRIDGE   N/A         36  31  82  CALM    30.43F
#PENDLETON 7NW  N/A         36  32  85  CALM    25.25F
#PILOT ROCK     N/A         35  30  82  CALM    30.39F
#TUTUILLA       N/A         36  32  85  E1      30.45F
#UMAPINE 2E     N/A         38  36  92  CALM    30.40F
#WESTON SCHOOL  N/A         32  30  92  NW2     30.36F

$$

ORZ508-302110-
SOUTHERN FOOTHILLS OF THE BLUES

CITY            SKY/WX      TMP DP  RH  WIND    PRES   REMARKS
LEXINGTON       CLOUDY      36  34  92  CALM    30.41F
#AJAX           N/A         32  27  82  CALM    30.28F
#CONDON SCHOOL  N/A         30  29  96  CALM    30.28F
#CONDON 5W      N/A         29  28  96  CALM    30.28F
#HEPPNER EOC    N/A         34  31  89  CALM    30.41F
#HEPPNER 4NE    N/A         30  29  96  CALM    30.46F
#LEXINGTON 2SE  N/A         37  31  79  SW3     30.36F
#MIKKALO        N/A         35  33  92  CALM    30.38F
#OLEX 4N        N/A         36  34  92  CALM    30.41F
#RUGGS 5NE      N/A         31  26  81  CALM    30.52S
#RUGGS 2SW      N/A         31  29  92  N1      30.49F

$$

ORZ502-503-302110-
BLUE MOUNTAINS

CITY            SKY/WX      TMP DP  RH  WIND    PRES   REMARKS
MEACHAM         SUNNY       35  28  75  VRB6    30.28F
#BATTLE MTN DOT N/A         35  35  100 NW3     N/A
#HARDMAN 10S    N/A         34  31  89  CALM    30.50S
#HEPPNER 15SE   N/A         30  28  92  CALM    30.18S
#LADD CYN SMT   N/A         37  26  64  NW6     N/A
#LADD CREEK ODOTN/A         36  29  75  NE3     N/A
#LONG CREEK HS  N/A         31  31  100 CALM    30.26F
#N POWDER DOT   N/A         31  30  96  S1      N/A
#PIKES PEAK     N/A         26  25  96  S2      27.99S
#TOLLGATE       N/A         41  32  70  SW1     30.15S
#TROY SCHOOL    N/A         36  33  89  CALM    30.28F
#UKIAH          N/A         29  28  96  CALM    30.46F
#WESTON 4E      N/A         28  27  96  CALM    30.42F
$$

ORZ505-302110-
JOHN DAY BASIN

CITY            SKY/WX      TMP DP  RH  WIND    PRES   REMARKS
JOHN DAY        CLOUDY      33  32  96  SW5     30.31F
#JOHN DAY KJDY  N/A         38  36  92  NE1     30.30F
#DAYVILLE SCHOOLN/A         37  35  92  CALM    30.30F
#MITCHELL       N/A         35  35  100 CALM    30.45F
#MONUMENT HS    N/A         37  31  79  CALM    30.35F
#MT. VERNON 5SE N/A         31  30  96  CALM    30.25F
#WINLOCK        N/A         36  33  89  W5      30.39S
$$

ORZ506-302110-
OCHOCO AND JOHN DAY HIGHLANDS

CITY            SKY/WX      TMP DP  RH  WIND    PRES   REMARKS
#BUCK CREEK DOT N/A         32  32  100 NW6     N/A
#HORSE RIDGE DO N/A         31  30  96  CALM    N/A
#KEYES SMT DOT  N/A         32  32  100 CALM    N/A
#PAULINA SCHOOL N/A         50  35  56  E2      30.25S
#PINE MTN OBS   N/A         37  28  70  CALM    N/A
#PRAIRIE CITY   N/A         32  27  82  CALM    30.48F
#SENECA         N/A         28  N/A N/A CALM    N/A
#SENECA 9NW     N/A         30  29  96  CALM    30.38F
$$

ORZ049-302110-
GRANDE RONDE VALLEY

CITY            SKY/WX      TMP DP  RH  WIND    PRES   REMARKS
LA GRANDE       SUNNY       39  27  62  SE3     30.29F
#COVE           N/A         36  30  79  E1      30.03S
#COVE SCHOOL    N/A         36  32  85  CALM    30.25F
#COVE 6NW       N/A         32  30  92  CALM    30.46F
#ELGIN 3N       N/A         45  32  60  CALM    30.08F
#ELGIN 1E       N/A         38  33  82  CALM    N/A
#IMBLER SCHOOL  N/A         36  31  82  CALM    30.24F
#ISLAND CITY 4N N/A         47  44  89  CALM    30.28F
#LADD CYN DOT   N/A         38  29  70  NE3     N/A
#UNION 1S       N/A         39  33  79  CALM    30.32F
$$

ORZ050-302110-
WALLOWA COUNTY

CITY            SKY/WX      TMP DP  RH  WIND    PRES   REMARKS
#ENTERPRISE AP  N/A         43  30  60  CALM    30.18F
#ENTERPRISE HS  N/A         42  34  73  CALM    30.26F
#IMNAHA SCHOOL  N/A         40  31  70  N7      30.31F
#IMNAHA 10S     N/A         41  30  65  CALM    30.27F
#JOSEPH 3N      N/A         37  32  82  CALM    30.29F
#JOSEPH 3W      N/A         38  27  64  CALM    30.07F
#LOSTINE        N/A         38  30  73  CALM    30.22F
#MT HOWARD 8000 N/A         33  -20  9  CALM    30.22R
#PROMISE 1S     N/A         36  31  82  CALM    30.50F
#SHEEP RDG 7000 N/A         33  13  43  CALM    30.29S
#WALLOWA SCHOOL N/A         31  30  96  CALM    31.42F



$$



USA.gov is the U.S. government's official web portal to all federal, state and local government web resources and services.